Tracking 19792 objects as of 15-Jul-2019
HD Live streaming from Space Station
objects crossing your sky now

FLOCK 3R 5

Track FLOCK 3R 5 now!
10-day predictions
FLOCK 3R 5 is classified as:


NORAD ID: 43726
Int'l Code: 2018-096H
Perigee: 479.9 km
Apogee: 502.7 km
Inclination: 97.5 °
Period: 94.3 minutes
Semi major axis: 6862 km
RCS: Unknown
Launch date: November 29, 2018
Source: United States (US)
Launch site: SRIHARIKOTA (SRI)
aabbcc
Your satellite tracking list
Your tracking list is empty




NASA's NSSDC Master Catalog

Two Line Element Set (TLE):
1 43726U 18096H   19195.87819525 +.00002171 +00000-0 +83972-4 0  9990
2 43726 097.4596 265.9062 0016634 239.0809 120.8795 15.27214220034730
Source of the keplerian elements: AFSPC